iso_date,epoch_date,Year,Hour,Min,DOY,POS_DOY,Lat,Lon,BP,Ts,Ta,has_bp,has_ts,has_ta,BuoyID,Buoy_Type,Buoy_Owner,Logistics,Hemisphere
2017-06-16T03:14:24Z,1497582864,2017,3,14,167.135,167.135,67.891,-168.256,1004.6,14.62,-999.0,yes,yes,no,300234063801040,BD2GI,AOML,UNKNOWN,North
2017-06-16T04:00:28Z,1497585629,2017,4,0,167.167,167.167,67.8922,-168.235,1004.4,14.47,-999.0,yes,yes,no,300234063801040,BD2GI,AOML,UNKNOWN,North
2017-06-16T04:59:31Z,1497589171,2017,5,0,167.208,167.208,67.8882,-168.2226,1002.9,14.06,-999.0,yes,yes,no,300234063801040,BD2GI,AOML,UNKNOWN,North
2017-06-16T06:00:00Z,1497592800,2017,6,0,167.25,167.25,67.8436,-168.3524,1002.8,12.89,-999.0,yes,yes,no,300234063801040,BD2GI,AOML,UNKNOWN,North
2017-06-16T07:00:28Z,1497596429,2017,7,0,167.292,167.292,67.7114,-168.576,1003.2,12.15,-999.0,yes,yes,no,300234063801040,BD2GI,AOML,UNKNOWN,North
2017-06-16T07:59:31Z,1497599971,2017,8,0,167.333,167.333,67.5836,-168.804,1003.3,11.35,-999.0,yes,yes,no,300234063801040,BD2GI,AOML,UNKNOWN,North
2017-06-16T09:00:00Z,1497603600,2017,9,0,167.375,167.375,67.5,-168.9494,1003.2,11.06,-999.0,yes,yes,no,300234063801040,BD2GI,AOML,UNKNOWN,North
2017-06-16T10:00:28Z,1497607229,2017,10,0,167.417,167.417,67.5922,-168.74,1002.7,10.42,-999.0,yes,yes,no,300234063801040,BD2GI,AOML,UNKNOWN,North
2017-06-16T10:59:31Z,1497610771,2017,11,0,167.458,167.458,67.7134,-168.452,1002.5,9.71,-999.0,yes,yes,no,300234063801040,BD2GI,AOML,UNKNOWN,North
2017-06-16T12:00:00Z,1497614400,2017,12,0,167.5,167.5,67.8338,-168.1616,1002.3,9.18,-999.0,yes,yes,no,300234063801040,BD2GI,AOML,UNKNOWN,North
2017-06-16T13:00:28Z,1497618029,2017,13,0,167.542,167.542,67.9514,-167.8788,1002.1,8.63,-999.0,yes,yes,no,300234063801040,BD2GI,AOML,UNKNOWN,North
2017-06-16T13:59:31Z,1497621571,2017,14,0,167.583,167.583,68.0766,-167.6136,1002.2,8.4,-999.0,yes,yes,no,300234063801040,BD2GI,AOML,UNKNOWN,North
2017-06-16T15:00:00Z,1497625200,2017,15,0,167.625,167.625,68.183,-167.318,1001.6,8.25,-999.0,yes,yes,no,300234063801040,BD2GI,AOML,UNKNOWN,North
2017-06-16T16:00:28Z,1497628829,2017,16,0,167.667,167.667,68.188,-167.3198,1001.6,8.21,-999.0,yes,yes,no,300234063801040,BD2GI,AOML,UNKNOWN,North
2017-06-16T16:59:31Z,1497632371,2017,17,0,167.708,167.708,68.1848,-167.3096,1001.7,8.43,-999.0,yes,yes,no,300234063801040,BD2GI,AOML,UNKNOWN,North
2017-06-16T18:00:00Z,1497636000,2017,18,0,167.75,167.75,68.1848,-167.3096,1001.7,8.98,-999.0,yes,yes,no,300234063801040,BD2GI,AOML,UNKNOWN,North
2017-06-16T19:00:28Z,1497639629,2017,19,0,167.792,167.792,68.1878,-167.3162,1001.7,9.79,-999.0,yes,yes,no,300234063801040,BD2GI,AOML,UNKNOWN,North
2017-06-16T19:59:31Z,1497643171,2017,20,0,167.833,167.833,68.1854,-167.3104,1001.1,9.34,-999.0,yes,yes,no,300234063801040,BD2GI,AOML,UNKNOWN,North
2017-06-16T21:00:00Z,1497646800,2017,21,0,167.875,167.875,68.1858,-167.3112,1001.1,8.84,-999.0,yes,yes,no,300234063801040,BD2GI,AOML,UNKNOWN,North
2017-06-16T22:00:28Z,1497650429,2017,22,0,167.917,167.917,68.2142,-167.3442,1001.2,9.53,-999.0,yes,yes,no,300234063801040,BD2GI,AOML,UNKNOWN,North
2017-06-16T22:59:31Z,1497653971,2017,23,0,167.958,167.958,68.175,-167.447,1001.2,9.62,-999.0,yes,yes,no,300234063801040,BD2GI,AOML,UNKNOWN,North
2017-06-17T00:00:00Z,1497657600,2017,0,0,168.0,168.0,68.1252,-167.491,1001.6,9.55,-999.0,yes,yes,no,300234063801040,BD2GI,AOML,UNKNOWN,North
2017-06-17T01:00:28Z,1497661229,2017,1,0,168.042,168.042,68.1606,-167.4278,1001.2,9.35,-999.0,yes,yes,no,300234063801040,BD2GI,AOML,UNKNOWN,North
2017-06-17T01:59:31Z,1497664771,2017,2,0,168.083,168.083,68.2112,-167.3558,1001.2,9.14,-999.0,yes,yes,no,300234063801040,BD2GI,AOML,UNKNOWN,North
2017-06-17T03:00:00Z,1497668400,2017,3,0,168.125,168.125,68.2876,-167.003,1000.8,9.67,-999.0,yes,yes,no,300234063801040,BD2GI,AOML,UNKNOWN,North
2017-06-17T04:00:28Z,1497672029,2017,4,0,168.167,168.167,68.35,-167.077,999.2,7.78,-999.0,yes,yes,no,300234063801040,BD2GI,AOML,UNKNOWN,North
2017-06-17T04:59:31Z,1497675571,2017,5,0,168.208,168.208,68.4146,-167.2512,999.5,6.48,-999.0,yes,yes,no,300234063801040,BD2GI,AOML,UNKNOWN,North
2017-06-17T06:00:00Z,1497679200,2017,6,0,168.25,168.25,68.4954,-167.4654,1000.7,5.49,-999.0,yes,yes,no,300234063801040,BD2GI,AOML,UNKNOWN,North
2017-06-17T07:00:28Z,1497682829,2017,7,0,168.292,168.292,68.4954,-167.4654,1002.5,5.18,-999.0,yes,yes,no,300234063801040,BD2GI,AOML,UNKNOWN,North
2017-06-17T07:59:31Z,1497686371,2017,8,0,168.333,168.333,68.4954,-167.4654,1003.7,6.25,-999.0,yes,yes,no,300234063801040,BD2GI,AOML,UNKNOWN,North
2017-06-17T09:00:00Z,1497690000,2017,9,0,168.375,168.375,68.4954,-167.4654,1004.0,6.19,-999.0,yes,yes,no,300234063801040,BD2GI,AOML,UNKNOWN,North
2017-06-17T10:00:28Z,1497693629,2017,10,0,168.417,168.417,68.4954,-167.4654,1004.5,5.99,-999.0,yes,yes,no,300234063801040,BD2GI,AOML,UNKNOWN,North
2017-06-17T10:59:31Z,1497697171,2017,11,0,168.458,168.458,68.4954,-167.4654,1005.1,5.8,-999.0,yes,yes,no,300234063801040,BD2GI,AOML,UNKNOWN,North
2017-06-17T12:00:00Z,1497700800,2017,12,0,168.5,168.5,68.4954,-167.4654,1005.9,5.7,-999.0,yes,yes,no,300234063801040,BD2GI,AOML,UNKNOWN,North
2017-06-17T13:00:28Z,1497704429,2017,13,0,168.542,168.542,68.4954,-167.4654,1006.8,5.57,-999.0,yes,yes,no,300234063801040,BD2GI,AOML,UNKNOWN,North
2017-06-17T13:59:31Z,1497707971,2017,14,0,168.583,168.583,68.4954,-167.4654,1007.7,5.57,-999.0,yes,yes,no,300234063801040,BD2GI,AOML,UNKNOWN,North
2017-06-17T15:00:00Z,1497711600,2017,15,0,168.625,168.625,68.4954,-167.4654,1008.2,5.8,-999.0,yes,yes,no,300234063801040,BD2GI,AOML,UNKNOWN,North
2017-06-17T16:00:28Z,1497715229,2017,16,0,168.667,168.667,69.0358,-168.8948,1008.5,5.99,-999.0,yes,yes,no,300234063801040,BD2GI,AOML,UNKNOWN,North
2017-06-17T16:59:31Z,1497718771,2017,17,0,168.708,168.708,69.0358,-168.8948,1008.5,5.92,-999.0,yes,yes,no,300234063801040,BD2GI,AOML,UNKNOWN,North
2017-06-17T18:00:00Z,1497722400,2017,18,0,168.75,168.75,69.0358,-168.8948,1008.4,5.35,-999.0,yes,yes,no,300234063801040,BD2GI,AOML,UNKNOWN,North
2017-06-17T19:00:28Z,1497726029,2017,19,0,168.792,168.792,69.035,-168.9018,1009.3,5.13,-999.0,yes,yes,no,300234063801040,BD2GI,AOML,UNKNOWN,North
2017-06-17T19:59:31Z,1497729571,2017,20,0,168.833,168.833,69.035,-168.9018,1010.1,5.63,-999.0,yes,yes,no,300234063801040,BD2GI,AOML,UNKNOWN,North
2017-06-17T21:00:00Z,1497733200,2017,21,0,168.875,168.875,69.035,-168.9018,1010.1,5.86,-999.0,yes,yes,no,300234063801040,BD2GI,AOML,UNKNOWN,North
2017-06-17T22:00:28Z,1497736829,2017,22,0,168.917,168.917,69.035,-168.9018,1010.4,6.17,-999.0,yes,yes,no,300234063801040,BD2GI,AOML,UNKNOWN,North
2017-06-17T22:59:31Z,1497740371,2017,23,0,168.958,168.958,69.035,-168.9018,1010.3,6.39,-999.0,yes,yes,no,300234063801040,BD2GI,AOML,UNKNOWN,North
2017-06-18T00:00:00Z,1497744000,2017,0,0,169.0,169.0,69.035,-168.9018,1010.3,6.59,-999.0,yes,yes,no,300234063801040,BD2GI,AOML,UNKNOWN,North
2017-06-18T01:00:28Z,1497747629,2017,1,0,169.042,169.042,69.035,-168.9018,1010.4,6.88,-999.0,yes,yes,no,300234063801040,BD2GI,AOML,UNKNOWN,North
2017-06-18T01:59:31Z,1497751171,2017,2,0,169.083,169.083,69.035,-168.9018,1009.9,7.06,-999.0,yes,yes,no,300234063801040,BD2GI,AOML,UNKNOWN,North
2017-06-18T03:00:00Z,1497754800,2017,3,0,169.125,169.125,69.035,-168.9018,1010.0,7.12,-999.0,yes,yes,no,300234063801040,BD2GI,AOML,UNKNOWN,North
2017-06-18T04:00:28Z,1497758429,2017,4,0,169.167,169.167,69.1268,-167.8294,1010.2,7.09,-999.0,yes,yes,no,300234063801040,BD2GI,AOML,UNKNOWN,North
2017-06-18T04:59:31Z,1497761971,2017,5,0,169.208,169.208,69.1268,-167.8294,1010.4,7.29,-999.0,yes,yes,no,300234063801040,BD2GI,AOML,UNKNOWN,North
2017-06-18T06:00:00Z,1497765600,2017,6,0,169.25,169.25,69.1268,-167.8294,1010.1,7.34,-999.0,yes,yes,no,300234063801040,BD2GI,AOML,UNKNOWN,North
2017-06-18T07:00:28Z,1497769229,2017,7,0,169.292,169.292,69.5668,-167.3434,1009.1,3.77,-999.0,yes,yes,no,300234063801040,BD2GI,AOML,UNKNOWN,North
2017-06-18T07:59:31Z,1497772771,2017,8,0,169.333,169.333,69.7164,-167.1758,1009.3,2.61,-999.0,yes,yes,no,300234063801040,BD2GI,AOML,UNKNOWN,North
2017-06-18T09:00:00Z,1497776400,2017,9,0,169.375,169.375,69.8158,-167.0702,1010.2,2.63,-999.0,yes,yes,no,300234063801040,BD2GI,AOML,UNKNOWN,North
2017-06-18T10:00:28Z,1497780029,2017,10,0,169.417,169.417,69.8138,-167.0698,1011.3,4.18,-999.0,yes,yes,no,300234063801040,BD2GI,AOML,UNKNOWN,North
2017-06-18T10:59:31Z,1497783571,2017,11,0,169.458,169.458,69.8174,-167.068,1010.9,4.18,-999.0,yes,yes,no,300234063801040,BD2GI,AOML,UNKNOWN,North
2017-06-18T12:00:00Z,1497787200,2017,12,0,169.5,169.5,69.8204,-167.0644,1010.9,4.19,-999.0,yes,yes,no,300234063801040,BD2GI,AOML,UNKNOWN,North
2017-06-18T13:00:28Z,1497790829,2017,13,0,169.542,169.542,69.8234,-167.0602,1010.9,4.16,-999.0,yes,yes,no,300234063801040,BD2GI,AOML,UNKNOWN,North
2017-06-18T13:59:31Z,1497794371,2017,14,0,169.583,169.583,69.8264,-167.0534,1010.9,4.46,-999.0,yes,yes,no,300234063801040,BD2GI,AOML,UNKNOWN,North
2017-06-18T15:00:00Z,1497798000,2017,15,0,169.625,169.625,69.8288,-167.0462,1010.7,4.48,-999.0,yes,yes,no,300234063801040,BD2GI,AOML,UNKNOWN,North
2017-06-18T16:00:28Z,1497801629,2017,16,0,169.667,169.667,69.8306,-167.04,1010.7,4.39,-999.0,yes,yes,no,300234063801040,BD2GI,AOML,UNKNOWN,North
2017-06-18T16:59:31Z,1497805171,2017,17,0,169.708,169.708,69.8324,-167.034,1010.8,4.31,-999.0,yes,yes,no,300234063801040,BD2GI,AOML,UNKNOWN,North
2017-06-18T18:00:00Z,1497808800,2017,18,0,169.75,169.75,69.8338,-167.0288,1011.0,4.35,-999.0,yes,yes,no,300234063801040,BD2GI,AOML,UNKNOWN,North
2017-06-18T19:00:28Z,1497812429,2017,19,0,169.792,169.792,69.8354,-167.0264,1011.1,4.48,-999.0,yes,yes,no,300234063801040,BD2GI,AOML,UNKNOWN,North
2017-06-18T19:59:31Z,1497815971,2017,20,0,169.833,169.833,69.8378,-167.0248,1011.4,4.53,-999.0,yes,yes,no,300234063801040,BD2GI,AOML,UNKNOWN,North
2017-06-18T21:00:00Z,1497819600,2017,21,0,169.875,169.875,69.8406,-167.0228,1011.6,4.65,-999.0,yes,yes,no,300234063801040,BD2GI,AOML,UNKNOWN,North
2017-06-18T22:00:28Z,1497823229,2017,22,0,169.917,169.917,69.8438,-167.0208,1012.0,4.77,-999.0,yes,yes,no,300234063801040,BD2GI,AOML,UNKNOWN,North
2017-06-18T22:59:31Z,1497826771,2017,23,0,169.958,169.958,69.8474,-167.018,1012.3,4.85,-999.0,yes,yes,no,300234063801040,BD2GI,AOML,UNKNOWN,North
2017-06-19T00:00:00Z,1497830400,2017,0,0,170.0,170.0,69.8508,-167.0136,1012.3,4.92,-999.0,yes,yes,no,300234063801040,BD2GI,AOML,UNKNOWN,North
2017-06-19T01:00:28Z,1497834029,2017,1,0,170.042,170.042,69.8542,-167.0074,1012.4,4.85,-999.0,yes,yes,no,300234063801040,BD2GI,AOML,UNKNOWN,North
2017-06-19T01:59:31Z,1497837571,2017,2,0,170.083,170.083,69.8572,-167.0008,1012.4,4.77,-999.0,yes,yes,no,300234063801040,BD2GI,AOML,UNKNOWN,North
2017-06-19T03:00:00Z,1497841200,2017,3,0,170.125,170.125,69.8596,-166.9938,1012.4,4.69,-999.0,yes,yes,no,300234063801040,BD2GI,AOML,UNKNOWN,North
2017-06-19T04:00:28Z,1497844829,2017,4,0,170.167,170.167,69.8616,-166.9876,1012.3,4.61,-999.0,yes,yes,no,300234063801040,BD2GI,AOML,UNKNOWN,North
2017-06-19T04:59:31Z,1497848371,2017,5,0,170.208,170.208,69.8632,-166.9824,1012.3,4.52,-999.0,yes,yes,no,300234063801040,BD2GI,AOML,UNKNOWN,North
2017-06-19T06:00:00Z,1497852000,2017,6,0,170.25,170.25,69.865,-166.979,1012.4,4.46,-999.0,yes,yes,no,300234063801040,BD2GI,AOML,UNKNOWN,North
2017-06-19T07:00:28Z,1497855629,2017,7,0,170.292,170.292,69.867,-166.9766,1012.4,4.44,-999.0,yes,yes,no,300234063801040,BD2GI,AOML,UNKNOWN,North
2017-06-19T07:59:31Z,1497859171,2017,8,0,170.333,170.333,69.87,-166.9744,1012.4,4.54,-999.0,yes,yes,no,300234063801040,BD2GI,AOML,UNKNOWN,North
2017-06-19T09:00:00Z,1497862800,2017,9,0,170.375,170.375,69.873,-166.9714,1012.6,4.68,-999.0,yes,yes,no,300234063801040,BD2GI,AOML,UNKNOWN,North
2017-06-19T10:00:28Z,1497866429,2017,10,0,170.417,170.417,69.8764,-166.9684,1012.7,4.83,-999.0,yes,yes,no,300234063801040,BD2GI,AOML,UNKNOWN,North
2017-06-19T10:59:31Z,1497869971,2017,11,0,170.458,170.458,69.88,-166.964,1012.6,4.79,-999.0,yes,yes,no,300234063801040,BD2GI,AOML,UNKNOWN,North
2017-06-19T12:00:00Z,1497873600,2017,12,0,170.5,170.5,69.8832,-166.9584,1012.5,4.67,-999.0,yes,yes,no,300234063801040,BD2GI,AOML,UNKNOWN,North
2017-06-19T13:00:28Z,1497877229,2017,13,0,170.542,170.542,69.8856,-166.9536,1012.1,4.57,-999.0,yes,yes,no,300234063801040,BD2GI,AOML,UNKNOWN,North
2017-06-19T13:59:31Z,1497880771,2017,14,0,170.583,170.583,69.8876,-166.9488,1012.0,4.44,-999.0,yes,yes,no,300234063801040,BD2GI,AOML,UNKNOWN,North
2017-06-19T15:00:00Z,1497884400,2017,15,0,170.625,170.625,69.889,-166.945,1011.8,4.4,-999.0,yes,yes,no,300234063801040,BD2GI,AOML,UNKNOWN,North
2017-06-19T16:00:28Z,1497888029,2017,16,0,170.667,170.667,69.8898,-166.9418,1011.8,4.32,-999.0,yes,yes,no,300234063801040,BD2GI,AOML,UNKNOWN,North
2017-06-19T16:59:31Z,1497891571,2017,17,0,170.708,170.708,69.8906,-166.9396,1011.7,4.26,-999.0,yes,yes,no,300234063801040,BD2GI,AOML,UNKNOWN,North
2017-06-19T18:00:00Z,1497895200,2017,18,0,170.75,170.75,69.892,-166.9394,1011.6,4.26,-999.0,yes,yes,no,300234063801040,BD2GI,AOML,UNKNOWN,North
2017-06-19T19:00:28Z,1497898829,2017,19,0,170.792,170.792,69.8938,-166.9392,1011.5,4.2,-999.0,yes,yes,no,300234063801040,BD2GI,AOML,UNKNOWN,North
2017-06-19T19:59:31Z,1497902371,2017,20,0,170.833,170.833,69.8956,-166.9372,1011.5,4.22,-999.0,yes,yes,no,300234063801040,BD2GI,AOML,UNKNOWN,North
2017-06-19T21:00:00Z,1497906000,2017,21,0,170.875,170.875,69.8978,-166.9358,1011.5,4.26,-999.0,yes,yes,no,300234063801040,BD2GI,AOML,UNKNOWN,North
2017-06-19T22:00:28Z,1497909629,2017,22,0,170.917,170.917,69.9004,-166.9348,1011.3,4.38,-999.0,yes,yes,no,300234063801040,BD2GI,AOML,UNKNOWN,North
2017-06-19T22:59:31Z,1497913171,2017,23,0,170.958,170.958,69.9036,-166.9332,1011.1,4.43,-999.0,yes,yes,no,300234063801040,BD2GI,AOML,UNKNOWN,North
2017-06-20T00:00:00Z,1497916800,2017,0,0,171.0,171.0,69.9066,-166.9314,1010.9,4.43,-999.0,yes,yes,no,300234063801040,BD2GI,AOML,UNKNOWN,North
2017-06-20T01:00:28Z,1497920429,2017,1,0,171.042,171.042,69.909,-166.9288,1010.7,4.19,-999.0,yes,yes,no,300234063801040,BD2GI,AOML,UNKNOWN,North
2017-06-20T01:59:31Z,1497923971,2017,2,0,171.083,171.083,69.9112,-166.9268,1009.6,2.02,-999.0,yes,yes,no,300234063801040,BD2GI,AOML,UNKNOWN,North
2017-06-20T03:00:00Z,1497927600,2017,3,0,171.125,171.125,69.913,-166.9248,1009.5,2.18,-999.0,yes,yes,no,300234063801040,BD2GI,AOML,UNKNOWN,North
2017-06-20T04:00:28Z,1497931229,2017,4,0,171.167,171.167,69.915,-166.9242,1009.5,2.72,-999.0,yes,yes,no,300234063801040,BD2GI,AOML,UNKNOWN,North
2017-06-20T04:59:31Z,1497934771,2017,5,0,171.208,171.208,69.9174,-166.9242,1009.4,2.75,-999.0,yes,yes,no,300234063801040,BD2GI,AOML,UNKNOWN,North
2017-06-20T06:00:00Z,1497938400,2017,6,0,171.25,171.25,69.9202,-166.9236,1009.2,2.8,-999.0,yes,yes,no,300234063801040,BD2GI,AOML,UNKNOWN,North
2017-06-20T07:00:28Z,1497942029,2017,7,0,171.292,171.292,69.922,-166.921,1009.0,3.1,-999.0,yes,yes,no,300234063801040,BD2GI,AOML,UNKNOWN,North
2017-06-20T07:59:31Z,1497945571,2017,8,0,171.333,171.333,69.9242,-166.9206,1008.4,1.96,-999.0,yes,yes,no,300234063801040,BD2GI,AOML,UNKNOWN,North
2017-06-20T09:00:00Z,1497949200,2017,9,0,171.375,171.375,69.927,-166.9216,1008.4,1.64,-999.0,yes,yes,no,300234063801040,BD2GI,AOML,UNKNOWN,North
2017-06-20T10:00:28Z,1497952829,2017,10,0,171.417,171.417,69.9304,-166.9214,1008.5,1.82,-999.0,yes,yes,no,300234063801040,BD2GI,AOML,UNKNOWN,North
2017-06-20T10:59:31Z,1497956371,2017,11,0,171.458,171.458,69.9342,-166.92,1008.3,2.05,-999.0,yes,yes,no,300234063801040,BD2GI,AOML,UNKNOWN,North
2017-06-20T12:00:00Z,1497960000,2017,12,0,171.5,171.5,69.9382,-166.916,1008.1,2.13,-999.0,yes,yes,no,300234063801040,BD2GI,AOML,UNKNOWN,North
2017-06-20T13:00:28Z,1497963629,2017,13,0,171.542,171.542,69.942,-166.9098,1007.9,2.78,-999.0,yes,yes,no,300234063801040,BD2GI,AOML,UNKNOWN,North
2017-06-20T13:59:31Z,1497967171,2017,14,0,171.583,171.583,69.9452,-166.9022,1007.5,2.72,-999.0,yes,yes,no,300234063801040,BD2GI,AOML,UNKNOWN,North
2017-06-20T15:00:00Z,1497970800,2017,15,0,171.625,171.625,69.9482,-166.8952,1007.4,2.74,-999.0,yes,yes,no,300234063801040,BD2GI,AOML,UNKNOWN,North
2017-06-20T16:00:28Z,1497974429,2017,16,0,171.667,171.667,69.951,-166.8892,1007.7,2.81,-999.0,yes,yes,no,300234063801040,BD2GI,AOML,UNKNOWN,North
2017-06-20T16:59:31Z,1497977971,2017,17,0,171.708,171.708,69.954,-166.8844,1007.6,2.8,-999.0,yes,yes,no,300234063801040,BD2GI,AOML,UNKNOWN,North
2017-06-20T18:00:00Z,1497981600,2017,18,0,171.75,171.75,69.9566,-166.8802,1007.4,2.84,-999.0,yes,yes,no,300234063801040,BD2GI,AOML,UNKNOWN,North
2017-06-20T19:00:28Z,1497985229,2017,19,0,171.792,171.792,69.9596,-166.8772,1007.5,2.85,-999.0,yes,yes,no,300234063801040,BD2GI,AOML,UNKNOWN,North
2017-06-20T19:59:31Z,1497988771,2017,20,0,171.833,171.833,69.9632,-166.8758,1008.1,3.12,-999.0,yes,yes,no,300234063801040,BD2GI,AOML,UNKNOWN,North
2017-06-20T21:00:00Z,1497992400,2017,21,0,171.875,171.875,69.9674,-166.8748,1007.9,3.19,-999.0,yes,yes,no,300234063801040,BD2GI,AOML,UNKNOWN,North
2017-06-20T22:00:28Z,1497996029,2017,22,0,171.917,171.917,69.9724,-166.8732,1008.0,3.24,-999.0,yes,yes,no,300234063801040,BD2GI,AOML,UNKNOWN,North
2017-06-20T22:59:31Z,1497999571,2017,23,0,171.958,171.958,69.9778,-166.871,1008.5,3.88,-999.0,yes,yes,no,300234063801040,BD2GI,AOML,UNKNOWN,North
2017-06-21T00:00:00Z,1498003200,2017,0,0,172.0,172.0,69.983,-166.868,1008.8,3.84,-999.0,yes,yes,no,300234063801040,BD2GI,AOML,UNKNOWN,North
2017-06-21T01:00:28Z,1498006829,2017,1,0,172.042,172.042,69.9882,-166.8662,1008.8,3.6,-999.0,yes,yes,no,300234063801040,BD2GI,AOML,UNKNOWN,North
2017-06-21T01:59:31Z,1498010371,2017,2,0,172.083,172.083,69.9932,-166.8634,1008.9,3.58,-999.0,yes,yes,no,300234063801040,BD2GI,AOML,UNKNOWN,North
2017-06-21T03:00:00Z,1498014000,2017,3,0,172.125,172.125,69.9976,-166.86,1008.9,4.25,-999.0,yes,yes,no,300234063801040,BD2GI,AOML,UNKNOWN,North
2017-06-21T04:00:28Z,1498017629,2017,4,0,172.167,172.167,70.0016,-166.8564,1009.0,3.9,-999.0,yes,yes,no,300234063801040,BD2GI,AOML,UNKNOWN,North
2017-06-21T04:59:31Z,1498021171,2017,5,0,172.208,172.208,70.0058,-166.8528,1009.1,3.62,-999.0,yes,yes,no,300234063801040,BD2GI,AOML,UNKNOWN,North
2017-06-21T06:00:00Z,1498024800,2017,6,0,172.25,172.25,70.0102,-166.8494,1009.2,3.53,-999.0,yes,yes,no,300234063801040,BD2GI,AOML,UNKNOWN,North
2017-06-21T07:00:28Z,1498028429,2017,7,0,172.292,172.292,70.0148,-166.8468,1009.5,3.41,-999.0,yes,yes,no,300234063801040,BD2GI,AOML,UNKNOWN,North
2017-06-21T07:59:31Z,1498031971,2017,8,0,172.333,172.333,70.0202,-166.845,1009.8,3.25,-999.0,yes,yes,no,300234063801040,BD2GI,AOML,UNKNOWN,North
2017-06-21T09:00:00Z,1498035600,2017,9,0,172.375,172.375,70.0268,-166.8422,1010.1,3.3,-999.0,yes,yes,no,300234063801040,BD2GI,AOML,UNKNOWN,North
2017-06-21T10:00:28Z,1498039229,2017,10,0,172.417,172.417,70.0342,-166.8386,1010.0,3.26,-999.0,yes,yes,no,300234063801040,BD2GI,AOML,UNKNOWN,North
2017-06-21T10:59:31Z,1498042771,2017,11,0,172.458,172.458,70.042,-166.8346,1009.9,3.28,-999.0,yes,yes,no,300234063801040,BD2GI,AOML,UNKNOWN,North
2017-06-21T12:00:00Z,1498046400,2017,12,0,172.5,172.5,70.05,-166.8306,1010.0,3.11,-999.0,yes,yes,no,300234063801040,BD2GI,AOML,UNKNOWN,North
2017-06-21T13:00:28Z,1498050029,2017,13,0,172.542,172.542,70.0582,-166.826,1009.9,3.16,-999.0,yes,yes,no,300234063801040,BD2GI,AOML,UNKNOWN,North
2017-06-21T13:59:31Z,1498053571,2017,14,0,172.583,172.583,70.0666,-166.8198,1009.9,3.13,-999.0,yes,yes,no,300234063801040,BD2GI,AOML,UNKNOWN,North
2017-06-21T15:00:00Z,1498057200,2017,15,0,172.625,172.625,70.0742,-166.8142,1010.2,3.17,-999.0,yes,yes,no,300234063801040,BD2GI,AOML,UNKNOWN,North
2017-06-21T16:00:28Z,1498060829,2017,16,0,172.667,172.667,70.0816,-166.8086,1010.2,3.38,-999.0,yes,yes,no,300234063801040,BD2GI,AOML,UNKNOWN,North
2017-06-21T16:59:31Z,1498064371,2017,17,0,172.708,172.708,70.0884,-166.8036,1010.2,3.66,-999.0,yes,yes,no,300234063801040,BD2GI,AOML,UNKNOWN,North
2017-06-21T18:00:00Z,1498068000,2017,18,0,172.75,172.75,70.0954,-166.7992,1009.9,2.97,-999.0,yes,yes,no,300234063801040,BD2GI,AOML,UNKNOWN,North
2017-06-21T19:00:28Z,1498071629,2017,19,0,172.792,172.792,70.102,-166.7946,1010.4,2.63,-999.0,yes,yes,no,300234063801040,BD2GI,AOML,UNKNOWN,North
2017-06-21T19:59:31Z,1498075171,2017,20,0,172.833,172.833,70.1086,-166.7906,1011.1,2.52,-999.0,yes,yes,no,300234063801040,BD2GI,AOML,UNKNOWN,North
2017-06-21T21:00:00Z,1498078800,2017,21,0,172.875,172.875,70.1152,-166.7872,1011.9,2.63,-999.0,yes,yes,no,300234063801040,BD2GI,AOML,UNKNOWN,North
2017-06-21T22:00:28Z,1498082429,2017,22,0,172.917,172.917,70.1218,-166.7854,1012.7,2.46,-999.0,yes,yes,no,300234063801040,BD2GI,AOML,UNKNOWN,North
2017-06-21T22:59:31Z,1498085971,2017,23,0,172.958,172.958,70.1286,-166.7836,1013.7,2.51,-999.0,yes,yes,no,300234063801040,BD2GI,AOML,UNKNOWN,North
2017-06-22T00:00:00Z,1498089600,2017,0,0,173.0,173.0,70.1358,-166.7814,1014.6,3.07,-999.0,yes,yes,no,300234063801040,BD2GI,AOML,UNKNOWN,North
2017-06-22T01:00:28Z,1498093229,2017,1,0,173.042,173.042,70.1428,-166.7784,1015.4,3.33,-999.0,yes,yes,no,300234063801040,BD2GI,AOML,UNKNOWN,North
2017-06-22T01:59:31Z,1498096771,2017,2,0,173.083,173.083,70.1498,-166.7744,1015.8,3.42,-999.0,yes,yes,no,300234063801040,BD2GI,AOML,UNKNOWN,North
2017-06-22T03:00:00Z,1498100400,2017,3,0,173.125,173.125,70.1564,-166.7704,1016.4,4.02,-999.0,yes,yes,no,300234063801040,BD2GI,AOML,UNKNOWN,North
2017-06-22T04:00:28Z,1498104029,2017,4,0,173.167,173.167,70.1624,-166.7664,1016.6,4.1,-999.0,yes,yes,no,300234063801040,BD2GI,AOML,UNKNOWN,North
2017-06-22T04:59:31Z,1498107571,2017,5,0,173.208,173.208,70.1676,-166.761,1016.8,4.08,-999.0,yes,yes,no,300234063801040,BD2GI,AOML,UNKNOWN,North
2017-06-22T06:00:00Z,1498111200,2017,6,0,173.25,173.25,70.172,-166.7572,1016.8,3.94,-999.0,yes,yes,no,300234063801040,BD2GI,AOML,UNKNOWN,North
2017-06-22T07:00:28Z,1498114829,2017,7,0,173.292,173.292,70.1764,-166.7546,1016.5,3.25,-999.0,yes,yes,no,300234063801040,BD2GI,AOML,UNKNOWN,North
2017-06-22T07:59:31Z,1498118371,2017,8,0,173.333,173.333,70.1812,-166.7534,1016.9,3.43,-999.0,yes,yes,no,300234063801040,BD2GI,AOML,UNKNOWN,North
2017-06-22T09:00:00Z,1498122000,2017,9,0,173.375,173.375,70.186,-166.7522,1017.0,3.57,-999.0,yes,yes,no,300234063801040,BD2GI,AOML,UNKNOWN,North
2017-06-22T10:00:28Z,1498125629,2017,10,0,173.417,173.417,70.1906,-166.7524,1017.0,3.66,-999.0,yes,yes,no,300234063801040,BD2GI,AOML,UNKNOWN,North
2017-06-22T10:59:31Z,1498129171,2017,11,0,173.458,173.458,70.1958,-166.7544,1017.2,3.76,-999.0,yes,yes,no,300234063801040,BD2GI,AOML,UNKNOWN,North
2017-06-22T12:00:00Z,1498132800,2017,12,0,173.5,173.5,70.201,-166.757,1017.1,3.55,-999.0,yes,yes,no,300234063801040,BD2GI,AOML,UNKNOWN,North
2017-06-22T13:00:28Z,1498136429,2017,13,0,173.542,173.542,70.2078,-166.7582,1017.3,3.62,-999.0,yes,yes,no,300234063801040,BD2GI,AOML,UNKNOWN,North
2017-06-22T13:59:31Z,1498139971,2017,14,0,173.583,173.583,70.2154,-166.7554,1017.3,3.61,-999.0,yes,yes,no,300234063801040,BD2GI,AOML,UNKNOWN,North
2017-06-22T15:00:00Z,1498143600,2017,15,0,173.625,173.625,70.222,-166.7516,1017.4,3.49,-999.0,yes,yes,no,300234063801040,BD2GI,AOML,UNKNOWN,North
2017-06-22T16:00:28Z,1498147229,2017,16,0,173.667,173.667,70.2278,-166.7474,1017.3,3.2,-999.0,yes,yes,no,300234063801040,BD2GI,AOML,UNKNOWN,North
2017-06-22T16:59:31Z,1498150771,2017,17,0,173.708,173.708,70.2328,-166.7436,1017.5,3.1,-999.0,yes,yes,no,300234063801040,BD2GI,AOML,UNKNOWN,North
2017-06-22T18:00:00Z,1498154400,2017,18,0,173.75,173.75,70.2372,-166.739,1017.9,3.06,-999.0,yes,yes,no,300234063801040,BD2GI,AOML,UNKNOWN,North
2017-06-22T19:00:28Z,1498158029,2017,19,0,173.792,173.792,70.2406,-166.7346,1017.9,3.05,-999.0,yes,yes,no,300234063801040,BD2GI,AOML,UNKNOWN,North
2017-06-22T19:59:31Z,1498161571,2017,20,0,173.833,173.833,70.2446,-166.7302,1017.8,3.01,-999.0,yes,yes,no,300234063801040,BD2GI,AOML,UNKNOWN,North
2017-06-22T21:00:00Z,1498165200,2017,21,0,173.875,173.875,70.2486,-166.726,1017.8,3.02,-999.0,yes,yes,no,300234063801040,BD2GI,AOML,UNKNOWN,North